User: anonymous   Login
Location: Young's Pond
(41.2695°N, 72.7766°W)
Time: 11:36:59
(UTC-05:00)
Language:

Spot 4 - Orbit

View from above orbital plane
View from above orbital plane
View from above satellite
View from above satellite

Ground track
Ground track

The orbit data is extracted from the following two-line orbital elements,

1 25260U 98017A   17352.14214106  .00000020  00000-0  15860-4 0  9993
2 25260  98.3392  73.8042 0014388  69.6244 290.6501 14.53511985 28577
Epoch (UTC): 18 December 2017 03:24:40
Eccentricity: 0.0014388
inclination: 98.3392°
perigee height: 704 km
apogee height: 724 km
right ascension of ascending node: 73.8042°
argument of perigee: 69.6244°
revolutions per day: 14.53511985
mean anomaly at epoch: 290.6501°
orbit number at epoch: 2857

The dashed part of the orbit path shows where the satellite is in the earth's shadow,  

DLR